Theta_e
301 301 301 301 302 302 303 303 304 304 304 305 307 310 305 304 303 314 317 319 315 307 301 300 297 296 299 300 298 299 297 297 300 297 299 296 298 298 295 295 295 296 296 297 296 297 294 295 295 298 299 300 302 305 306 306 305 304 303 303 303 304 295 294 295 299 299 301 304 304 304 303 300 301 302 301 296 297 296 295 296 293 292 290 289 287 292
301 300 301 302 302 302 303 303 304 304 304 303 305 305 305 304 306 307 315 320 316 305 292 292 293 297 298 298 298 298 299 297 297 295 298 297 297 295 296 297 297 296 298 297 295 298 291 296 296 298 301 300 305 306 306 306 303 303 304 299 305 294 298 295 291 291 293 296 300 300 303 301 298 298 301 301 301 301 301 299 298 290 293 292 288 284 289
301 301 302 302 302 302 303 303 304 304 305 305 304 303 307 308 309 308 310 315 313 301 301 297 293 295 296 296 295 296 296 298 299 299 297 298 298 298 296 297 299 296 298 296 297 298 296 296 298 299 299 301 305 305 306 307 307 307 308 307 308 297 297 295 287 285 283 282 283 286 290 295 299 301 301 299 299 300 299 291 293 287 292 294 290 288 297
300 301 301 301 302 303 303 303 304 305 304 303 303 306 307 303 293 304 306 309 307 305 305 302 298 295 296 292 295 296 295 296 298 299 298 299 299 298 299 299 299 296 297 295 294 294 298 296 297 297 297 302 302 305 306 305 305 307 306 308 306 297 300 297 295 290 289 289 292 297 297 297 294 298 298 298 299 302 302 299 292 289 292 291 293 295 295
300 301 301 301 302 303 303 303 304 304 304 303 305 308 308 307 296 296 295 304 304 301 301 299 299 295 298 290 295 293 294 296 296 298 295 298 298 298 297 296 295 295 295 294 294 296 295 297 296 296 297 300 302 304 306 305 304 304 305 308 305 302 296 299 298 296 297 298 296 297 296 294 297 295 296 300 302 303 299 293 291 299 292 289 297 298 297
300 300 301 301 302 302 303 303 304 304 303 304 305 304 307 296 301 304 307 297 293 294 294 299 298 298 297 295 297 295 294 294 292 296 298 299 299 296 296 296 296 296 295 296 291 294 294 295 291 297 297 299 302 301 303 302 303 305 304 307 304 302 293 300 298 298 298 299 299 299 297 296 296 297 297 298 302 302 296 300 301 300 292 288 297 300 298
300 300 301 301 302 302 303 304 304 304 303 303 307 302 306 305 305 305 307 297 299 298 298 300 299 296 296 295 296 294 294 293 296 296 296 296 297 297 290 294 295 296 297 296 293 294 290 289 296 296 298 298 297 296 298 301 304 303 304 304 305 300 294 299 298 295 296 298 300 300 297 296 297 297 297 299 300 300 299 300 301 299 297 300 300 298 295
300 300 300 301 302 302 303 304 305 304 301 304 306 307 303 302 301 299 303 303 299 299 300 298 298 295 296 291 295 295 294 293 295 296 296 291 295 298 294 296 296 296 297 296 293 296 296 298 291 299 297 298 298 293 296 295 301 302 302 302 304 298 292 296 298 293 293 297 300 299 298 298 296 296 297 298 299 299 298 299 298 300 299 299 300 298 294
300 301 301 301 302 302 303 304 304 304 303 307 307 309 308 310 310 308 300 296 297 297 297 296 296 292 294 293 294 295 294 294 296 296 298 297 294 295 294 295 297 296 296 296 296 297 298 298 299 299 298 294 299 296 300 300 294 298 297 297 300 300 294 301 299 290 289 295 296 295 297 298 296 294 292 294 295 294 296 293 296 294 293 296 297 294 293
300 301 301 301 302 302 303 304 304 304 303 307 309 305 313 310 311 310 304 294 295 296 297 297 295 291 296 297 296 295 295 296 296 291 297 297 298 297 297 298 297 296 295 295 297 299 299 300 300 300 300 301 300 301 300 300 299 299 301 300 298 298 296 292 293 289 288 292 296 296 296 296 290 287 290 292 294 295 297 297 296 295 296 293 290 293 297
300 300 300 301 301 302 303 303 304 304 306 308 308 307 309 307 303 305 303 294 292 297 296 294 294 294 295 296 295 296 297 296 296 292 290 297 298 299 299 298 296 295 295 298 300 301 301 301 302 303 301 300 300 300 301 301 301 300 301 301 298 298 296 293 296 288 288 292 293 297 292 283 282 290 295 294 292 293 292 291 293 294 296 294 296 297 299
300 300 300 301 302 302 303 303 304 304 304 308 309 307 312 313 310 305 296 293 291 298 296 293 294 295 295 294 296 295 295 295 296 298 295 297 298 299 298 298 297 290 298 303 302 302 302 302 301 301 300 300 299 299 300 300 301 302 302 300 298 296 296 292 294 288 288 290 289 287 282 283 288 296 296 297 296 295 293 294 294 294 295 296 295 295 295
299 300 300 301 301 302 302 303 304 304 305 308 309 307 316 315 309 304 300 296 293 294 293 294 296 296 297 296 295 295 296 296 296 297 296 296 297 298 299 298 297 297 301 301 301 300 296 296 297 296 296 297 298 299 299 300 300 301 303 301 301 293 293 293 290 291 292 288 287 280 280 287 292 294 296 297 298 295 295 292 292 292 293 294 293 293 294
299 300 300 301 301 302 302 303 303 304 305 306 307 310 313 313 307 304 300 295 293 297 299 295 295 295 296 296 296 296 296 295 297 298 296 298 297 298 299 298 300 301 301 302 299 298 295 295 290 292 293 294 295 293 297 297 300 300 299 302 302 302 298 294 289 291 286 288 286 284 288 288 289 289 290 290 288 290 289 285 286 291 293 293 292 292 291
299 300 300 301 301 302 302 303 304 304 305 305 309 311 313 314 312 308 306 299 293 296 298 291 295 297 296 296 295 294 295 296 294 294 296 300 298 299 301 300 302 301 303 299 296 297 293 292 287 287 287 287 283 285 295 290 297 301 301 300 300 295 296 293 290 289 291 287 283 283 283 281 283 289 293 296 295 294 294 291 287 292 293 294 293 291 291
299 300 300 301 301 302 303 303 304 304 305 305 309 311 312 314 312 309 305 301 297 289 295 299 300 297 296 295 295 293 293 291 293 295 295 296 297 299 300 301 303 303 300 298 298 294 292 288 286 286 284 286 290 288 286 292 292 298 300 300 301 300 301 295 291 289 289 286 284 284 282 281 287 289 292 295 296 294 294 289 284 290 293 294 294 292 292
299 300 300 301 302 302 303 303 304 304 305 305 308 311 310 315 310 310 306 302 300 292 298 299 300 298 295 292 293 294 296 293 295 290 290 293 296 296 298 300 305 302 300 299 297 293 290 289 288 289 286 283 285 286 287 286 286 288 295 298 298 297 294 293 289 287 288 287 284 280 284 282 287 291 293 295 296 296 291 283 282 288 293 294 294 292 292
299 299 300 301 301 302 303 303 304 305 305 305 307 311 309 315 313 312 308 302 295 294 298 299 298 296 295 296 295 295 297 296 294 296 294 296 294 294 296 298 298 301 302 295 296 291 290 289 286 286 285 289 287 287 283 288 286 286 286 288 290 290 290 291 288 289 287 285 284 285 284 289 291 292 295 297 297 293 285 281 284 293 293 295 294 293 294
299 299 300 300 301 302 303 303 304 305 305 305 309 312 309 310 313 311 311 301 297 291 297 299 300 298 299 299 298 297 297 299 298 292 291 290 295 297 297 298 300 294 298 294 295 290 289 289 293 290 288 288 293 287 291 287 285 292 290 287 287 288 288 288 289 287 286 288 285 283 284 288 293 296 297 297 292 283 282 288 295 295 293 294 294 293 293
299 299 300 300 301 302 303 304 304 306 306 306 306 307 308 314 311 313 308 299 298 295 298 299 299 296 300 300 298 298 299 299 298 296 293 291 298 299 297 293 297 299 297 299 290 292 289 286 289 292 288 288 290 293 289 288 292 289 289 289 286 284 285 285 285 285 289 288 284 284 279 287 295 295 295 295 287 285 291 293 294 294 293 293 292 292 291
299 299 300 300 302 303 303 304 305 306 306 306 305 309 303 311 315 320 319 304 300 293 294 301 301 300 301 300 301 299 297 295 296 295 298 298 301 298 289 289 296 296 292 293 288 289 291 288 290 288 291 291 291 293 286 287 290 295 294 290 288 291 285 286 286 287 284 283 280 279 285 290 295 295 287 290 292 294 295 294 292 294 294 293 292 292 293
299 299 300 301 302 303 303 305 305 305 306 306 304 314 303 308 311 312 310 307 299 296 299 302 302 302 302 303 302 302 300 299 300 302 299 296 302 299 298 299 299 300 299 300 296 293 294 292 292 288 287 289 295 289 292 287 284 291 295 293 283 291 287 288 284 289 286 283 284 289 292 293 295 295 294 295 296 297 297 296 294 293 293 295 293 292 293
298 299 300 301 302 303 304 304 305 305 306 305 308 309 302 304 307 311 310 301 302 302 303 302 302 302 303 302 303 304 304 305 305 304 305 299 296 300 300 301 299 302 303 302 299 295 295 294 289 293 289 290 288 287 289 289 286 290 287 294 291 294 294 295 291 288 292 293 293 294 294 294 295 297 298 297 298 298 298 296 293 294 294 295 293 294 293
298 299 300 300 302 302 303 304 305 305 305 306 307 309 305 306 307 307 303 302 298 296 299 303 299 294 297 297 301 303 303 302 303 306 307 305 297 296 301 301 303 304 301 303 303 299 298 296 295 295 288 292 293 288 285 285 287 292 290 289 292 295 296 294 289 292 289 282 293 292 293 295 296 296 297 299 299 298 299 297 296 295 295 295 295 295 295
298 299 299 300 301 302 303 304 305 305 305 305 310 307 309 308 311 309 303 293 296 295 289 292 295 299 300 302 303 301 302 304 306 306 307 308 305 299 297 301 305 304 301 305 308 302 297 292 294 293 287 294 294 287 293 288 288 295 287 289 291 289 298 292 291 290 287 286 291 293 295 295 296 296 295 295 297 298 299 299 298 298 298 297 296 296 295
298 299 299 300 301 302 303 304 304 304 305 305 308 310 306 306 312 312 308 305 303 298 290 289 295 302 302 300 298 300 303 304 303 303 304 304 305 307 305 305 304 308 307 307 306 299 296 294 293 292 291 290 299 291 289 293 292 294 290 288 294 294 296 288 292 289 290 293 294 294 294 294 295 296 297 297 297 297 298 298 298 298 297 296 297 297 296
298 299 299 300 301 302 303 304 304 304 304 304 310 311 307 308 313 310 307 305 298 291 293 290 295 298 300 298 301 303 303 303 304 303 302 302 304 307 308 306 304 304 304 302 303 298 297 295 294 292 295 293 297 295 295 292 293 289 289 293 297 294 289 293 291 287 286 287 290 294 288 287 292 295 296 297 298 298 297 297 296 297 297 297 296 297 298
298 299 299 300 301 302 303 303 304 304 304 305 310 311 312 309 311 312 313 311 303 293 292 292 294 297 302 298 301 302 303 303 303 302 302 303 305 306 305 305 305 302 301 298 294 294 293 291 291 294 294 297 294 290 296 296 295 292 291 292 295 292 295 294 289 288 286 292 294 296 295 294 295 296 297 297 298 297 296 296 296 297 297 298 296 295 296
298 299 300 300 301 302 303 303 304 304 304 305 313 309 309 310 311 313 312 316 314 301 297 297 300 299 292 296 302 301 303 304 304 302 302 302 302 304 304 304 303 302 301 298 295 294 293 292 295 294 294 299 295 290 292 286 286 285 289 294 295 297 297 296 295 295 295 296 296 297 295 292 295 297 298 298 298 297 297 297 297 297 297 297 297 296 295
298 299 300 300 302 302 303 303 304 304 304 310 309 305 299 300 309 311 311 312 313 304 295 292 288 290 302 301 299 300 300 303 303 304 302 302 303 303 303 303 302 302 301 296 295 291 293 293 294 299 300 304 294 291 288 289 286 289 294 295 296 297 298 298 298 295 293 297 297 297 296 297 298 298 298 298 299 298 296 296 297 297 297 298 297 296 297
299 299 300 301 301 302 303 304 304 304 304 311 306 296 294 291 301 310 309 312 314 308 296 295 291 296 295 300 301 298 299 300 302 302 302 303 302 302 303 303 302 301 295 295 294 293 294 290 292 294 298 299 294 291 289 287 285 288 292 295 295 296 296 296 297 298 297 297 298 298 297 296 298 297 296 296 296 297 296 296 296 296 297 297 296 297 296
299 300 300 301 301 302 303 304 304 304 310 307 303 300 303 305 309 308 308 310 311 304 295 291 290 291 290 295 299 301 300 300 301 302 302 303 301 303 302 302 298 301 296 294 295 294 292 293 293 294 295 297 294 291 291 288 285 286 293 294 296 296 297 297 297 297 298 298 297 295 294 295 296 294 293 297 297 298 297 296 296 297 296 297 297 297 296
299 300 300 301 302 302 303 304 304 304 308 306 302 302 304 303 303 307 309 315 310 301 302 293 289 289 289 293 299 301 302 302 300 301 298 303 300 302 298 302 301 299 301 295 292 290 295 293 293 292 296 300 292 290 290 287 289 294 294 295 295 296 295 297 297 298 297 298 298 293 291 293 294 297 297 297 297 296 296 296 297 297 296 295 295 295 296
299 300 300 301 302 303 303 304 304 301 303 308 306 306 310 303 308 305 312 315 305 303 299 292 288 289 289 299 294 297 302 296 295 298 292 301 303 301 296 299 299 293 297 294 294 294 294 293 291 291 295 291 292 289 285 289 294 294 295 295 295 296 296 296 297 296 297 297 297 297 297 297 298 298 298 297 297 297 298 297 297 295 295 295 295 295 296
299 300 301 301 302 303 303 303 309 308 304 303 304 309 310 303 302 304 312 310 293 291 292 292 293 288 288 291 289 294 301 299 293 296 292 296 304 298 298 292 293 291 292 301 293 292 290 291 296 290 287 293 289 285 287 291 293 294 295 295 295 296 296 295 294 296 296 297 297 297 297 297 296 295 296 296 297 297 297 296 296 296 294 295 295 295 296
300 300 301 302 302 303 307 306 308 303 301 301 303 307 302 306 308 317 318 312 305 294 291 291 292 290 291 286 286 290 300 296 298 298 297 295 296 300 298 294 289 293 300 294 290 294 290 296 293 287 291 288 286 288 290 294 293 293 293 293 294 295 294 294 294 295 297 297 297 298 297 297 295 295 295 296 296 296 297 296 296 296 295 295 295 295 296
300 301 301 302 305 306 303 299 303 307 307 308 308 303 301 305 312 313 312 309 307 307 297 292 291 292 295 290 291 292 298 289 296 294 295 292 291 293 294 291 288 291 291 290 290 289 292 300 292 287 287 286 288 294 295 295 294 293 294 295 295 296 295 295 295 296 296 296 297 297 297 296 295 295 295 295 295 296 296 295 295 295 295 295 296 296 296
300 299 304 304 304 295 293 296 304 308 305 304 304 304 304 304 296 297 296 294 299 301 296 299 292 295 297 293 288 297 299 292 298 290 291 293 290 290 293 290 289 290 286 288 291 298 294 291 289 287 287 293 295 295 295 295 296 296 296 295 296 296 296 296 296 296 294 294 293 294 294 294 294 295 295 294 295 295 295 297 297 297 296 296 297 298 298
300 304 305 305 300 293 294 302 309 301 309 306 306 299 294 297 294 290 291 293 293 293 296 296 291 296 296 293 293 300 298 292 291 292 288 294 290 285 291 285 289 290 286 286 288 298 287 287 288 288 286 290 292 294 296 296 296 296 296 297 297 297 297 296 296 296 294 294 294 295 295 294 294 294 296 295 296 296 297 297 296 296 296 297 297 297 298
304 302 297 298 297 299 305 305 300 303 305 297 298 295 289 294 290 287 294 290 290 292 294 291 297 298 298 293 291 291 300 297 289 288 290 291 298 288 290 290 290 288 282 284 286 296 287 283 287 286 285 289 291 295 295 296 295 296 297 297 297 297 297 297 297 298 297 297 296 296 297 297 296 296 296 296 295 295 296 296 296 297 297 297 297 296 297
303 303 300 296 300 302 302 304 307 305 298 292 291 292 290 287 292 292 290 288 288 289 297 296 297 296 297 298 296 291 298 302 300 299 293 288 295 295 288 285 290 286 284 284 289 291 289 286 286 286 286 291 292 294 295 295 295 296 297 297 297 297 297 297 297 297 297 296 296 297 297 297 297 297 297 297 296 296 296 296 296 297 297 298 298 298 299
306 305 306 306 304 305 305 302 299 293 293 293 288 285 288 289 291 290 291 287 287 290 293 296 291 294 293 297 296 297 294 300 297 293 291 286 291 290 287 288 289 285 282 288 291 290 288 282 284 285 290 293 294 295 295 295 295 296 296 297 297 297 297 297 296 297 297 297 297 297 297 297 298 297 297 297 297 296 296 296 296 297 297 298 299 299 299
298 299 306 301 299 297 297 291 293 292 285 285 285 282 287 284 286 286 287 292 294 294 293 302 298 299 299 301 297 299 295 301 294 292 290 287 291 291 287 286 285 282 286 292 288 286 283 282 284 287 293 293 294 295 295 296 296 296 297 297 297 297 297 297 296 296 297 297 297 297 297 297 297 297 297 297 297 297 297 296 297 297 297 298 298 298 298
306 303 298 295 292 292 293 281 292 288 285 287 284 279 283 283 286 289 287 289 293 292 296 294 294 294 289 297 293 291 292 295 295 293 290 291 289 286 285 283 285 290 293 287 286 283 284 286 288 291 294 294 295 295 296 296 296 296 296 297 297 297 297 297 296 296 296 297 297 298 297 297 297 297 297 297 297 296 297 297 298 298 298 298 298 298 299
296 293 292 290 288 290 288 280 290 287 281 284 286 286 285 284 286 288 289 293 296 293 296 297 295 295 291 295 296 293 294 290 294 290 285 289 286 287 285 284 288 288 285 282 284 285 285 284 289 293 294 293 294 295 296 296 296 296 296 296 296 297 296 296 296 296 296 296 296 296 296 296 296 297 297 297 297 298 297 297 298 297 297 297 296 297 298
292 290 289 284 279 286 287 283 285 282 288 289 287 291 290 293 292 293 297 298 297 296 295 296 297 296 291 294 291 290 292 292 289 288 289 289 284 283 288 291 289 284 283 284 282 282 283 288 290 292 294 294 295 296 296 297 297 297 296 294 295 295 296 296 296 296 296 296 296 296 296 296 296 296 296 297 297 297 298 298 298 299 298 297 296 297 298
292 292 291 289 284 286 290 284 284 288 291 292 294 295 295 296 297 297 298 299 297 298 298 299 297 296 292 291 291 291 293 292 287 288 291 285 283 286 290 286 280 283 280 280 281 283 286 290 292 294 295 295 296 296 296 296 296 296 296 296 295 295 296 295 296 295 296 296 296 296 296 296 296 297 297 297 297 298 297 298 299 299 299 298 298 298 298
288 292 292 283 282 286 284 288 295 294 295 296 295 297 298 298 296 294 297 299 299 298 297 296 293 293 292 295 296 290 290 290 286 287 289 287 287 285 283 282 282 284 285 283 283 288 289 292 294 294 296 296 296 295 295 296 296 296 296 296 296 295 295 295 295 296 296 296 296 296 296 297 297 297 297 297 297 298 298 298 299 299 299 299 299 299 298
293 290 287 286 288 288 289 293 292 291 293 295 296 296 295 295 294 296 298 300 297 296 297 295 292 292 288 291 290 288 286 289 284 283 287 286 282 278 279 277 280 279 284 287 288 289 291 294 295 296 296 296 296 296 296 296 296 296 295 296 296 296 296 296 296 297 297 297 297 297 297 297 297 296 296 296 296 297 299 300 300 300 300 299 299 298 298
290 289 290 289 288 290 294 294 293 290 293 293 294 294 296 295 294 296 299 298 299 297 299 297 294 291 289 289 286 287 286 289 287 287 285 282 283 284 283 279 281 283 285 290 291 292 295 295 296 295 296 296 295 296 295 296 294 296 297 297 296 296 296 297 296 297 297 297 297 297 297 296 296 296 296 296 297 298 298 298 299 298 299 299 299 298 297
293 291 290 294 290 289 291 287 288 288 290 292 293 294 295 294 295 295 301 299 298 295 291 289 290 289 287 286 285 281 285 290 286 284 284 283 286 284 282 281 284 288 290 293 294 294 295 296 295 295 295 295 296 296 296 296 296 296 297 296 296 297 297 297 297 297 297 297 297 293 296 296 296 297 298 298 298 297 297 297 298 299 299 299 299 298 298
289 287 288 291 295 294 294 295 295 294 294 295 295 296 297 294 296 297 300 298 295 291 289 291 289 287 284 283 285 288 290 287 285 286 284 286 288 284 284 287 288 291 292 292 293 295 294 296 296 294 296 295 295 296 296 297 296 296 296 296 297 296 296 296 296 297 297 297 297 296 296 297 297 298 298 298 297 297 296 296 298 299 299 299 299 299 299
Wind_Speed
11 11 12 12 13 13 13 14 14 12 12 9 3 5 5 7 2 8 9 8 8 5 6 5 5 5 2 2 1 4 5 5 3 6 5 6 4 4 4 4 5 5 6 3 5 4 5 3 5 2 9 1 4 4 5 5 10 7 5 8 2 4 4 9 9 9 3 11 5 3 7 7 9 9 8 6 7 10 9 6 6 7 5 5 6 7 3
11 11 11 12 12 13 14 14 14 13 8 7 7 7 6 5 4 6 8 8 7 6 5 5 4 3 3 6 2 1 3 5 6 6 4 6 6 5 4 3 6 3 2 5 6 2 3 2 4 4 9 7 4 1 2 3 7 5 4 3 3 4 6 10 7 8 9 7 7 10 9 8 9 9 8 10 10 11 6 3 6 6 8 7 4 5 1
10 11 12 12 13 14 14 14 14 13 11 9 6 5 5 4 7 5 7 7 7 5 3 6 3 6 5 5 5 6 5 1 7 6 2 1 3 3 5 4 3 5 2 6 6 4 4 2 3 5 2 6 4 6 4 5 3 7 5 3 4 7 3 3 9 9 7 8 8 5 3 5 7 10 7 10 9 13 9 5 7 7 11 13 10 1 5
10 11 12 12 13 14 14 14 14 12 11 7 6 6 4 7 3 5 6 6 5 6 3 4 1 3 4 1 2 4 5 4 4 6 2 4 3 5 7 2 5 7 4 6 8 8 5 5 2 4 4 4 4 4 7 6 7 8 7 7 2 1 2 4 6 6 4 2 1 5 7 7 5 9 1 6 9 10 5 3 6 8 1 1 8 5 5
10 11 12 12 13 14 14 14 14 9 10 5 8 7 6 1 3 5 5 5 6 3 5 4 5 3 3 2 5 6 3 2 5 4 4 5 8 4 5 5 4 5 5 5 6 5 4 6 5 2 6 4 5 6 3 7 8 4 2 7 4 6 7 5 6 11 9 8 4 4 5 8 10 7 7 6 4 2 3 7 5 5 5 5 8 8 7
10 11 12 13 13 14 14 14 13 7 9 7 4 5 6 4 4 4 3 3 4 5 4 5 4 4 6 1 2 4 5 5 4 4 5 2 4 6 5 9 4 5 5 3 4 5 6 3 1 4 2 5 1 5 3 2 2 3 2 3 3 4 4 4 5 6 15 11 5 5 3 6 1 3 3 5 8 8 5 5 6 5 4 3 3 6 11
10 11 11 12 13 14 14 14 12 5 5 5 6 4 4 4 2 2 4 3 4 4 4 1 5 6 4 4 6 2 3 5 4 3 4 6 5 7 2 7 6 5 2 5 5 3 5 3 2 3 2 3 4 3 7 3 4 2 3 4 3 2 3 5 3 5 10 11 6 7 8 8 1 3 7 6 7 8 7 7 10 8 3 8 9 12 10
10 10 10 11 13 13 14 14 12 6 6 7 7 7 3 4 1 5 3 1 5 4 4 4 4 4 1 3 3 3 4 3 4 4 3 1 3 3 4 7 3 4 5 3 5 3 3 4 1 2 4 3 3 2 1 2 6 5 2 1 3 3 1 4 3 3 7 6 3 5 7 5 2 7 10 10 8 6 8 9 13 11 3 5 7 9 8
10 10 11 11 13 14 14 14 12 9 8 5 7 4 5 4 3 2 4 5 5 4 5 7 5 4 6 4 4 4 3 3 2 4 2 6 5 3 3 4 4 2 6 1 1 3 1 2 0 2 3 2 3 4 3 3 1 1 1 1 2 4 2 1 0 3 1 6 5 5 3 4 5 9 11 11 9 7 9 7 9 10 9 7 6 5 4
10 10 11 12 13 14 14 14 12 12 9 6 4 5 1 3 2 4 4 3 2 4 1 2 4 3 3 5 8 3 3 3 4 3 5 2 1 1 3 2 6 4 2 3 2 3 4 5 5 4 3 3 4 2 3 3 3 2 2 2 5 3 4 3 1 3 2 4 9 4 7 6 4 7 9 7 7 6 4 9 12 11 11 7 7 6 6
10 11 11 12 13 14 14 13 13 9 9 4 4 3 2 3 2 5 4 2 3 5 5 3 3 7 5 3 6 2 3 1 2 3 2 6 4 1 2 3 5 2 2 5 3 4 5 5 6 4 5 6 5 4 4 5 5 3 3 3 1 1 4 2 3 2 2 3 5 5 6 8 2 4 5 5 6 7 7 8 11 11 9 5 6 7 7
9 10 11 12 13 14 14 13 12 9 7 6 5 7 5 5 6 5 3 3 3 2 4 2 3 6 4 4 2 5 4 4 2 5 1 2 2 1 1 5 2 1 4 4 4 5 6 5 7 6 7 7 7 5 5 4 2 4 5 4 3 3 3 1 2 1 1 3 1 4 10 2 3 3 8 5 4 7 6 9 13 12 11 9 6 8 8
9 11 11 12 14 14 14 14 13 11 7 6 6 6 4 4 5 5 4 2 3 4 4 7 3 4 2 4 3 1 1 1 1 0 2 2 2 4 3 3 4 5 3 5 6 6 6 5 5 7 8 8 7 8 6 4 3 2 4 4 4 2 3 2 1 1 2 1 3 4 2 3 6 3 10 9 1 7 2 4 12 13 12 10 7 7 7
9 11 11 13 14 14 14 14 14 12 9 7 6 5 5 4 4 5 4 2 3 3 4 5 4 4 2 3 1 2 3 4 3 2 4 3 5 4 3 3 3 3 3 4 5 6 4 4 3 4 7 7 5 6 8 4 1 3 4 3 3 5 3 3 2 4 3 1 1 4 7 6 8 5 9 9 5 7 6 3 6 11 10 10 6 5 6
10 10 11 12 13 14 15 14 14 13 10 8 7 7 5 3 3 5 5 4 2 3 3 1 4 5 2 1 2 3 5 4 4 5 6 3 5 3 2 1 1 4 3 5 4 4 4 1 3 3 3 5 6 5 4 2 4 3 2 1 1 3 3 1 5 3 4 3 6 6 6 3 5 6 6 6 4 4 4 2 3 10 10 8 6 5 4
10 11 12 12 14 14 15 15 14 13 11 12 6 6 3 3 4 5 6 4 2 4 3 6 6 2 2 2 1 5 1 1 3 3 6 5 6 6 5 2 0 3 5 5 4 3 2 3 2 5 2 1 1 1 2 2 1 6 2 0 3 3 3 1 2 2 3 5 5 2 3 5 4 7 6 6 3 2 2 2 3 8 10 9 6 5 4
10 11 12 13 14 15 16 15 15 13 11 10 6 5 1 3 3 4 5 3 1 4 4 4 3 1 3 4 5 4 2 1 2 2 3 4 6 1 4 2 2 4 5 4 4 4 3 3 3 3 4 3 1 1 1 2 2 2 4 4 2 4 4 3 3 4 4 5 2 3 4 4 8 9 7 6 2 3 2 4 4 7 9 7 6 5 3
10 11 12 13 14 15 16 16 16 14 12 10 7 6 2 2 2 5 6 2 3 4 5 3 2 4 2 5 3 4 2 2 4 2 3 6 3 5 4 4 5 5 3 5 2 2 2 3 2 3 3 1 5 2 3 3 3 3 3 3 1 1 1 2 4 1 5 8 7 5 4 3 9 10 8 5 2 3 3 3 5 6 7 7 4 4 5
10 11 12 13 14 16 16 17 17 15 14 12 8 6 1 2 1 2 7 1 2 3 5 4 4 7 6 4 5 2 4 5 3 2 2 3 2 6 3 3 4 2 6 2 3 1 2 2 2 1 0 4 4 1 2 3 3 3 5 2 3 3 2 0 2 3 3 5 8 7 5 3 11 9 5 5 4 2 3 2 4 5 7 8 9 9 8
10 11 12 14 15 16 17 17 17 16 14 12 7 4 4 2 1 4 5 3 5 6 5 5 2 6 3 5 3 2 3 5 3 4 2 2 2 3 3 3 5 5 3 3 1 2 2 2 3 0 3 2 5 3 6 5 3 6 6 6 3 3 3 3 3 3 1 6 7 4 4 6 15 13 2 12 2 3 1 3 6 7 7 8 9 9 10
10 11 12 14 15 16 17 17 17 16 16 13 7 5 4 1 1 4 5 1 6 5 5 3 5 8 7 7 7 7 8 7 6 7 5 3 4 1 1 2 4 2 1 0 1 3 2 4 4 2 2 1 4 3 5 6 8 9 7 6 6 8 2 4 3 5 4 7 6 5 2 5 10 10 5 6 6 2 1 1 6 6 6 8 8 9 10
11 11 13 14 16 16 17 17 18 17 17 14 10 6 5 4 3 3 3 2 4 4 7 7 8 7 7 7 5 6 8 8 8 6 6 3 3 3 1 2 3 4 4 3 4 3 6 5 4 3 6 4 1 4 1 3 6 8 11 4 5 9 8 6 8 8 5 6 5 3 3 6 8 9 9 7 6 6 8 8 7 7 7 8 9 11 11
10 11 13 14 16 16 17 17 18 18 17 18 14 2 7 6 5 3 4 9 8 7 6 6 6 7 7 8 6 5 5 5 5 5 6 6 1 2 3 3 4 3 1 3 3 4 6 6 5 6 7 6 5 6 7 7 7 9 9 8 9 9 12 11 12 14 16 14 11 9 10 10 10 10 9 10 10 9 9 9 9 9 9 8 9 10 11
10 12 13 15 16 16 17 17 18 17 18 17 13 1 5 5 6 6 6 7 4 6 5 4 4 4 6 7 6 5 6 6 7 4 3 3 4 2 6 5 4 3 3 2 2 1 4 4 6 4 5 5 3 7 7 9 9 10 9 8 7 7 5 7 7 9 6 7 8 11 12 12 13 13 13 13 12 11 10 11 11 11 11 11 11 11 11
11 12 13 15 16 17 17 17 17 17 18 17 14 3 5 6 2 3 6 4 3 2 4 4 5 4 6 6 5 6 7 4 2 3 1 2 4 6 7 5 4 5 6 3 3 3 3 4 6 6 6 4 2 8 6 8 10 7 9 9 8 11 11 13 12 13 11 10 10 12 12 12 11 9 10 12 13 13 13 11 12 12 12 12 12 11 11
10 12 13 15 16 16 17 16 17 16 16 18 16 2 3 4 4 4 3 2 4 5 5 5 6 3 5 6 8 7 4 4 4 5 5 7 8 6 4 2 3 2 1 2 2 3 4 5 4 5 7 8 6 8 9 10 11 10 10 8 6 6 5 8 10 12 13 14 12 12 13 13 12 12 12 11 11 11 13 13 12 12 12 11 10 9 9
10 12 13 15 15 16 16 16 16 16 16 16 10 3 3 3 3 5 5 3 3 4 3 6 6 7 7 9 6 5 5 4 4 3 3 3 5 4 3 3 4 3 4 6 7 5 5 6 6 8 8 8 7 10 9 9 10 8 9 10 8 9 11 12 10 9 8 8 8 6 6 7 9 11 11 11 11 11 11 11 11 11 11 10 10 10 9
10 11 13 14 15 16 16 16 16 16 15 16 9 2 2 2 2 4 4 6 7 2 5 6 6 7 5 9 6 7 7 6 5 4 5 5 5 4 3 3 2 4 4 4 5 5 6 8 10 5 6 9 10 10 10 11 11 11 11 10 9 7 2 3 5 6 7 7 7 8 10 10 9 9 9 9 9 9 10 10 9 9 8 9 9 9 8
10 11 13 14 15 16 16 15 15 15 15 14 3 3 4 2 2 3 5 4 5 2 6 6 6 5 2 5 2 8 8 7 6 6 5 6 6 6 6 6 6 7 8 8 6 6 6 6 3 5 5 5 4 8 8 9 9 11 10 9 9 10 14 15 13 13 11 9 9 9 9 9 9 8 7 8 7 8 9 9 8 8 7 6 6 6 6
10 11 12 14 15 15 15 15 15 14 13 7 4 5 4 4 2 3 6 5 6 1 4 4 5 4 3 4 7 5 8 8 9 8 8 6 6 5 6 6 6 6 6 5 5 7 6 6 5 7 4 5 3 5 7 8 9 11 11 11 11 11 12 11 10 10 10 9 10 11 11 10 8 8 8 7 7 7 7 7 6 6 6 6 6 6 5
10 11 13 14 15 15 15 15 14 14 13 3 4 3 3 4 3 2 7 7 5 5 3 3 6 4 5 3 4 6 7 8 7 8 8 7 6 7 6 6 7 6 6 6 6 7 4 7 5 6 6 9 3 6 8 8 10 11 11 10 10 11 11 12 11 11 10 10 11 10 9 9 7 8 8 7 8 7 7 7 8 10 8 7 7 6 5
10 12 13 14 15 14 14 14 14 13 6 3 4 4 4 3 4 7 8 7 7 3 5 5 4 3 4 3 4 2 6 4 6 5 6 4 8 6 8 7 7 8 6 6 5 5 6 4 4 6 8 6 4 7 9 9 10 10 10 10 9 11 11 11 11 10 10 10 10 9 8 6 5 5 6 5 6 7 8 8 7 7 3 6 6 6 6
11 13 14 14 14 14 13 11 11 9 4 4 2 4 6 4 5 6 6 6 5 3 2 2 3 3 3 7 5 4 2 2 5 3 6 3 7 5 7 7 7 8 5 4 5 5 5 5 4 6 8 6 5 6 9 8 11 11 10 10 10 10 10 9 9 8 8 5 3 6 6 6 7 7 7 6 7 6 5 5 5 5 5 4 5 4 4
12 13 14 14 14 14 13 11 11 8 6 4 3 4 5 10 6 5 7 5 2 2 2 3 3 3 5 4 5 3 6 1 6 4 5 2 2 5 5 6 5 5 4 6 5 5 5 4 6 8 7 7 5 6 8 11 11 10 10 10 9 8 7 7 7 7 7 7 7 7 7 7 5 4 4 5 4 2 2 4 3 3 3 3 1 1 2
13 14 14 15 13 13 14 11 5 5 2 3 4 3 5 9 8 9 7 4 2 1 1 2 1 6 4 4 3 5 4 3 4 4 4 2 4 6 5 4 3 3 3 2 4 4 5 5 6 5 8 6 4 6 6 10 11 11 10 10 9 8 7 7 7 5 4 5 5 6 5 5 5 5 4 3 2 2 0 1 0 0 1 1 2 1 1
14 15 15 13 14 11 6 6 5 3 4 3 5 5 5 8 8 4 3 2 5 1 3 2 3 3 2 5 4 3 4 6 5 4 5 2 5 3 5 4 5 4 2 1 5 5 5 1 1 6 3 4 5 5 8 10 10 9 8 8 7 7 6 6 5 5 6 4 5 4 3 1 3 4 2 2 2 0 1 2 2 3 4 2 2 1 2
14 15 15 13 7 5 4 1 2 4 4 4 4 9 9 7 3 3 4 5 4 5 1 3 4 5 0 6 2 2 4 4 3 5 5 3 3 1 5 3 5 2 3 4 4 4 3 3 3 6 4 6 6 8 10 10 9 8 8 7 6 6 5 6 4 2 6 4 3 3 5 4 2 2 1 1 1 1 2 3 3 3 5 6 5 5 4
13 12 6 5 4 1 2 2 2 3 5 5 4 2 4 4 3 3 2 1 2 4 0 3 4 5 2 6 5 4 4 4 3 4 3 4 3 3 2 3 3 2 5 3 4 3 4 3 5 6 6 7 7 8 9 8 8 7 7 7 6 6 6 4 2 2 3 5 5 3 2 2 2 1 2 0 1 3 5 5 4 3 4 5 6 4 3
9 5 5 4 3 2 1 5 3 2 4 3 3 2 3 3 3 1 1 1 2 2 1 1 5 4 3 5 6 2 4 2 3 4 4 0 1 4 2 4 1 1 5 3 4 5 3 4 5 5 7 7 8 8 7 8 7 7 6 6 6 5 4 5 5 5 5 5 5 6 6 6 5 2 1 2 3 3 3 4 4 3 3 3 3 4 5
5 5 2 2 0 5 5 5 2 2 4 3 2 1 3 2 2 2 1 2 1 2 2 3 2 3 3 7 6 5 1 4 4 5 4 4 4 2 2 1 2 2 5 3 4 5 3 5 4 5 7 6 8 8 7 7 7 6 6 6 5 5 4 5 4 3 3 4 3 3 3 2 3 5 3 3 3 5 4 3 3 4 4 2 3 4 4
5 3 4 1 5 5 6 6 5 4 2 2 1 0 1 2 1 1 2 3 2 2 3 5 5 6 1 3 6 5 4 3 5 6 3 3 1 2 3 3 1 2 2 4 3 2 2 3 4 4 6 7 9 8 8 7 6 6 5 5 5 4 3 4 4 4 3 3 3 3 2 1 1 2 2 2 4 4 4 5 4 3 4 5 4 3 3
4 3 4 3 5 6 6 5 3 1 0 0 2 1 1 1 2 3 2 3 4 3 5 5 5 7 5 2 5 4 3 5 1 1 3 3 0 1 3 2 1 2 3 3 4 1 2 3 4 4 6 9 10 9 8 7 6 6 5 5 4 2 3 3 3 3 4 3 3 2 3 4 5 3 4 4 6 6 6 5 5 4 5 4 5 5 4
8 7 6 3 5 3 2 3 0 0 1 0 1 2 2 2 3 4 3 1 1 3 4 4 7 6 5 2 6 4 3 1 2 2 1 3 1 1 3 2 2 2 3 3 3 2 3 3 3 5 7 10 10 9 6 7 6 5 5 4 4 2 3 3 3 2 3 2 3 2 2 2 2 3 3 5 4 5 5 4 5 5 5 4 4 4 3
4 4 4 3 3 1 1 2 1 0 1 1 3 3 4 3 4 2 2 4 3 3 6 5 6 6 4 1 1 3 3 3 1 1 3 2 2 2 1 3 2 4 2 3 2 4 3 3 3 8 9 10 8 8 7 7 5 5 4 3 3 1 1 0 1 1 2 1 1 2 3 2 3 4 3 3 4 5 4 6 4 4 4 5 4 3 2
5 2 2 2 1 2 0 1 2 2 3 3 3 3 4 5 4 4 3 4 4 7 7 5 6 5 5 3 1 3 3 3 1 1 2 2 2 2 2 2 2 2 3 4 3 2 2 3 3 9 10 10 10 9 8 7 5 5 5 3 2 0 1 2 1 1 1 2 2 2 3 3 3 4 4 4 4 5 5 4 4 5 4 4 3 3 0
3 3 3 3 2 3 1 2 2 3 2 3 3 4 6 4 6 4 6 6 6 8 7 7 6 6 4 3 2 3 2 3 3 2 2 2 3 2 2 2 1 2 2 3 4 4 5 4 4 8 10 10 10 8 7 6 5 4 4 4 3 1 1 1 1 1 2 1 3 3 3 3 3 3 5 5 5 5 4 4 4 5 4 4 3 3 2
2 2 2 1 2 2 2 2 4 2 3 5 1 1 0 5 4 6 5 4 7 6 7 6 6 5 5 4 2 2 1 2 2 2 2 2 2 2 0 1 2 2 4 4 4 3 4 5 5 8 10 10 10 8 7 6 4 4 4 2 1 2 0 2 2 3 2 2 3 4 4 4 4 4 4 5 5 5 5 4 4 4 5 4 4 4 4
3 1 1 2 3 3 5 2 1 2 1 1 3 2 6 5 6 7 6 6 7 5 6 4 5 3 3 1 4 4 3 3 4 2 0 3 2 1 2 1 2 2 2 3 3 3 2 5 7 8 9 9 9 8 6 5 5 5 3 3 3 2 2 3 3 3 2 3 4 4 4 4 5 4 5 5 5 5 5 5 5 4 5 5 5 5 5
1 3 2 1 1 3 2 2 4 5 4 3 4 5 6 6 7 7 5 6 6 6 7 7 3 2 3 2 2 3 3 3 3 2 2 2 2 3 3 3 4 4 2 3 4 3 4 7 8 9 9 10 8 6 5 4 5 4 3 4 3 2 2 2 2 2 2 3 3 3 3 4 4 5 6 5 4 5 5 5 5 5 5 5 5 5 5
2 1 1 2 2 2 2 4 4 4 5 5 6 5 5 7 7 7 6 7 7 5 1 5 0 1 3 2 3 2 2 2 2 2 3 3 2 2 2 3 3 3 4 3 2 4 7 7 8 9 9 8 7 6 5 5 2 3 3 3 2 3 3 1 3 3 2 3 2 4 5 4 5 5 5 6 6 6 6 6 6 6 5 5 5 5 6
1 2 2 1 2 3 4 4 4 5 5 6 6 6 6 7 7 7 3 5 5 4 3 3 3 3 3 2 2 3 2 2 2 4 3 3 2 2 2 3 4 2 3 3 4 5 7 8 7 7 7 7 5 4 4 4 5 5 3 4 2 2 2 2 3 2 3 4 2 5 6 5 5 5 5 5 6 6 6 6 6 6 5 5 5 5 5
2 2 3 3 3 3 7 5 5 6 6 6 6 6 6 7 6 7 4 5 5 5 4 3 2 3 2 3 2 2 2 2 1 2 3 2 1 2 2 1 4 3 5 5 7 7 6 8 8 7 7 6 5 4 3 3 3 3 3 3 3 3 3 3 3 2 3 3 5 4 4 4 4 4 5 6 7 6 6 6 5 5 5 5 4 5 5
Wind_Direction
325 326 322 322 324 327 330 329 329 326 323 310 345 321 228 214 125 102 160 169 202 203 229 198 203 219 51 54 187 119 192 274 113 241 179 219 222 269 224 248 241 231 285 309 277 322 264 256 259 331 88 349 346 5 256 230 244 266 257 100 325 230 239 225 249 233 274 244 295 284 251 260 251 243 269 245 239 245 250 231 266 276 276 269 301 256 121
328 323 322 324 327 330 330 328 327 322 317 315 301 264 240 180 111 159 169 186 216 240 222 178 193 145 172 237 155 311 351 223 188 236 144 256 165 237 235 235 237 300 229 258 266 2 263 220 243 237 158 150 149 293 294 212 240 254 30 328 158 222 216 246 232 236 202 212 282 244 219 221 239 245 232 265 249 238 227 273 22 291 267 269 230 279 109
328 322 322 329 331 329 329 328 320 317 310 296 270 264 267 164 155 162 164 184 221 234 274 285 172 147 190 196 178 160 207 150 335 306 189 199 263 265 239 272 33 246 235 261 263 243 274 263 315 11 303 99 132 58 43 23 57 54 41 339 256 242 274 259 233 229 234 231 227 236 220 250 256 223 46 353 291 266 259 217 206 238 253 250 260 313 71
327 325 326 328 328 328 331 327 320 316 312 276 229 250 240 175 156 149 160 200 201 253 283 295 281 164 173 216 207 235 192 130 225 256 193 298 328 276 312 202 247 263 268 244 234 228 190 243 248 231 222 144 115 78 63 38 53 37 20 344 202 297 315 226 269 260 228 187 172 227 278 292 279 336 36 206 252 277 286 294 268 247 17 34 73 91 118
328 327 325 327 328 328 332 327 321 322 329 271 235 253 264 264 215 159 168 172 212 230 216 187 235 189 211 180 194 205 196 139 158 218 273 177 262 186 254 268 201 263 270 280 273 263 240 204 218 207 268 17 85 88 44 76 56 318 298 5 289 243 238 235 268 279 283 172 136 99 341 323 330 314 299 327 6 325 230 250 260 35 298 236 90 118 115
329 327 326 325 327 332 333 330 324 339 320 332 257 250 203 227 131 176 142 245 159 185 191 211 114 90 214 93 312 206 182 194 158 185 252 124 220 257 152 239 227 227 253 240 243 247 259 248 265 272 232 270 224 172 135 110 101 245 80 42 349 295 264 331 312 312 311 278 184 156 198 249 218 323 331 335 13 30 8 26 8 352 272 302 108 138 121
326 322 322 323 331 334 334 328 331 327 323 293 274 247 190 267 151 144 116 235 83 35 79 127 140 189 235 140 223 181 199 184 175 218 173 204 168 234 134 262 182 240 237 244 239 224 248 197 113 316 306 348 317 32 309 78 11 85 39 50 27 331 282 338 27 311 317 280 245 226 228 248 267 5 13 2 4 33 34 2 16 10 5 104 114 87 70
323 317 320 331 334 335 332 331 333 320 298 256 253 255 269 202 168 153 171 254 131 133 151 158 187 144 81 179 180 154 177 178 165 185 211 237 201 260 237 228 252 205 247 266 228 94 319 12 121 39 303 213 302 114 322 283 345 4 84 71 86 246 141 84 357 358 302 294 333 237 219 184 136 32 28 25 4 39 23 21 14 359 85 56 112 113 85
319 323 333 337 336 335 335 334 339 332 309 245 227 226 239 322 336 316 194 157 111 132 152 177 179 123 208 220 121 218 166 151 254 140 229 163 229 247 241 268 284 281 264 235 197 146 111 299 61 288 351 299 39 309 124 196 191 156 132 219 197 225 261 146 244 278 332 281 244 240 185 157 112 48 35 24 19 22 21 39 18 13 353 316 190 110 101
323 331 335 337 336 336 337 339 340 339 308 291 296 259 250 268 233 255 259 153 187 202 124 44 200 168 57 8 152 226 164 92 209 86 294 299 315 204 291 340 278 222 242 246 210 26 314 323 330 333 296 265 303 253 264 291 285 248 174 188 235 238 252 255 266 278 249 258 256 162 206 187 193 37 14 11 38 16 52 54 39 23 353 19 25 57 70
328 331 334 336 336 338 338 342 341 344 321 299 297 292 270 301 265 204 221 185 163 226 160 181 250 71 114 189 140 290 147 255 229 236 157 241 158 91 250 245 272 265 48 58 33 298 296 301 295 279 257 270 256 233 244 248 247 247 236 213 284 275 258 227 149 259 4 6 341 232 220 229 66 23 18 7 24 18 43 42 36 23 21 21 9 32 45
329 331 331 334 338 338 341 342 341 347 332 304 289 283 307 329 266 252 221 202 149 236 222 143 57 115 189 154 172 168 184 197 195 346 128 201 127 83 268 209 204 247 65 291 310 296 268 240 242 238 264 252 244 247 251 269 260 232 225 239 218 221 240 211 205 206 238 95 354 239 238 107 159 39 33 29 39 18 35 64 38 25 16 10 39 38 46
331 330 331 336 338 340 341 341 341 342 346 314 281 274 346 334 288 269 256 241 156 181 227 116 135 134 137 126 182 182 347 6 105 222 309 279 225 184 253 336 260 40 6 321 293 281 270 265 238 239 226 224 227 230 232 207 226 250 257 226 223 200 221 152 236 166 111 188 173 243 65 154 165 82 31 13 46 17 316 90 40 26 16 4 36 37 54
331 329 333 336 338 340 341 341 341 338 343 326 279 276 298 305 278 252 237 239 147 176 41 86 140 151 172 185 293 240 181 221 233 188 250 218 243 229 150 248 8 9 298 300 265 260 263 223 230 209 211 209 212 236 190 185 3 19 336 259 227 228 189 214 231 182 227 87 110 99 145 130 48 28 12 17 359 349 3 17 44 19 11 0 12 40 47
331 332 336 337 338 341 342 343 340 337 333 329 283 275 270 261 291 292 315 301 196 141 219 285 122 124 170 209 259 260 227 191 202 199 209 134 257 259 272 180 40 313 345 284 261 227 238 261 227 218 220 212 216 210 155 269 197 133 159 260 235 0 240 218 262 218 231 138 138 147 196 152 67 39 3 4 354 320 305 283 103 23 14 7 6 47 83
334 336 337 338 340 342 343 341 340 337 334 328 274 270 289 1 310 284 283 289 139 185 101 46 35 43 234 169 215 264 343 208 220 184 166 188 213 203 190 223 290 298 273 246 243 243 244 253 238 249 244 220 112 177 240 344 183 112 85 327 161 181 181 64 274 263 208 204 194 180 139 72 28 7 350 345 343 299 227 245 98 16 11 9 17 45 68
336 337 338 339 341 342 342 342 339 338 333 335 302 282 180 55 291 302 279 233 322 59 68 69 30 292 258 144 190 205 253 289 288 229 198 179 174 185 133 162 152 223 224 253 232 211 205 218 233 241 101 109 98 97 88 50 223 45 61 111 124 186 203 184 239 232 249 235 121 76 44 73 6 343 341 332 324 203 207 225 68 11 13 19 30 50 67
338 338 340 341 342 342 342 341 340 338 334 333 300 297 32 84 284 286 259 233 120 90 58 36 301 253 28 29 34 47 266 224 213 224 292 111 202 191 138 184 200 187 262 248 230 236 254 266 276 296 85 96 135 244 131 157 126 33 45 354 79 126 174 230 221 238 75 89 103 112 99 64 355 344 330 351 33 217 252 21 359 359 10 15 15 45 27
341 341 341 343 342 343 342 341 341 338 337 338 317 263 152 8 293 273 285 170 132 96 64 76 48 45 50 66 31 47 11 349 330 232 178 188 88 40 315 11 337 156 196 232 262 286 256 178 93 349 89 152 215 38 90 80 51 113 117 111 99 47 346 70 275 154 181 148 103 91 85 30 342 334 328 9 258 342 62 18 355 12 32 28 34 43 44
344 344 344 345 344 343 342 339 339 337 333 338 322 301 65 345 278 293 317 76 91 107 123 105 104 91 26 5 48 11 139 188 341 292 57 52 113 208 206 173 182 263 180 265 180 14 342 28 39 103 80 76 72 113 105 114 69 45 82 59 46 20 326 81 24 327 193 107 104 107 69 27 356 319 250 10 7 64 69 50 56 50 52 54 58 68 75
346 347 347 346 346 344 342 340 339 339 335 334 326 286 117 83 256 246 265 101 119 112 100 66 75 59 51 63 32 24 13 20 358 336 39 40 46 278 245 64 109 193 59 0 11 103 34 79 57 75 53 83 124 242 103 103 93 59 66 83 46 339 235 83 57 345 47 60 60 58 22 331 4 25 64 28 53 68 22 264 81 64 66 72 76 77 87
348 348 350 348 348 345 344 343 343 340 336 335 329 267 108 90 83 20 5 71 107 98 79 67 71 77 63 65 61 25 22 13 15 349 325 357 151 289 29 236 28 0 38 325 101 99 101 103 110 100 108 105 265 74 23 110 78 70 38 34 87 20 59 44 72 30 49 77 94 129 109 62 48 58 71 78 76 73 63 65 67 77 70 80 82 85 85
348 350 349 350 348 347 346 346 345 342 341 340 332 169 95 127 105 110 109 96 101 105 126 125 127 116 115 81 58 39 39 30 354 359 350 327 298 119 347 42 76 10 62 51 340 92 124 132 105 119 107 95 98 101 86 69 80 66 71 58 101 104 102 94 82 82 88 87 94 102 92 86 85 78 79 83 86 84 82 80 83 72 80 82 89 87 88
350 349 350 351 350 348 348 348 347 345 342 338 330 337 117 102 132 138 118 123 124 122 115 96 101 57 44 52 53 55 45 45 25 13 9 327 336 102 112 52 19 187 80 21 221 205 100 98 100 95 66 18 80 92 96 98 89 99 93 100 107 130 130 96 106 143 112 78 87 90 90 88 84 82 80 81 82 85 88 88 88 96 95 93 90 91 86
350 347 350 351 349 349 349 349 347 346 342 338 331 66 107 134 19 346 137 136 158 133 102 83 62 55 68 50 52 52 38 8 56 359 324 261 314 1 49 33 348 9 80 23 299 118 111 103 108 100 81 9 312 89 80 103 103 100 102 99 108 89 81 77 76 83 87 107 101 89 83 81 83 82 83 79 79 80 81 85 92 96 98 99 104 105 102
351 347 350 350 349 349 347 346 347 345 343 334 322 274 108 68 2 325 263 50 80 118 117 99 101 96 62 70 53 44 8 9 34 50 32 44 51 40 80 129 113 281 18 296 281 84 85 94 85 81 84 68 36 88 72 59 85 76 82 72 63 90 126 81 97 94 98 106 102 97 87 81 76 76 74 78 86 94 97 98 98 97 99 103 104 105 108
348 349 348 349 347 347 345 345 346 345 340 337 327 54 71 93 22 346 349 350 137 97 110 105 109 101 93 76 53 55 39 46 41 66 78 41 61 59 39 88 109 107 75 69 47 60 65 75 78 81 74 93 104 96 100 96 80 83 80 70 85 108 99 122 124 113 113 112 120 135 113 101 91 82 82 85 86 88 88 90 97 105 110 111 107 104 102
348 347 346 345 347 344 345 341 343 339 337 326 301 48 42 56 48 353 333 356 328 116 122 125 115 97 110 70 49 48 41 46 50 78 82 77 59 35 41 42 72 113 111 116 106 95 95 92 87 89 90 87 83 80 81 93 90 75 67 56 37 50 338 188 99 110 114 117 105 91 94 98 94 104 103 98 92 92 92 89 85 79 80 103 117 115 117
345 346 344 345 343 343 340 339 336 334 333 317 280 157 131 60 37 39 2 341 296 131 109 107 136 155 82 52 16 74 58 63 69 72 74 78 76 66 56 62 69 66 67 65 73 77 76 70 62 77 69 356 62 100 98 85 81 79 74 83 66 51 53 68 86 95 94 98 105 107 105 103 105 98 96 87 82 81 84 88 93 101 111 104 91 102 105
342 345 343 342 340 339 339 334 331 329 325 301 228 188 155 130 75 20 359 325 306 222 131 131 103 89 105 59 64 61 76 69 69 69 77 82 75 78 85 83 84 85 83 77 88 89 84 92 84 85 70 296 100 97 98 92 88 86 81 73 70 75 77 83 89 94 101 96 94 98 105 108 104 95 84 82 75 69 73 72 78 102 94 83 90 94 101
341 341 341 338 337 335 334 331 327 324 312 281 228 174 188 159 119 48 359 323 325 302 114 108 99 111 94 66 40 58 78 76 68 70 74 73 78 84 83 101 100 99 95 97 94 97 110 95 99 87 81 6 14 105 96 101 100 97 84 81 82 88 88 87 92 95 98 99 102 104 102 102 102 102 93 95 110 101 90 78 49 29 15 79 82 91 91
337 337 336 334 332 332 328 325 325 318 294 335 348 2 13 26 31 334 327 305 306 248 115 126 144 133 91 97 81 19 77 95 106 92 81 83 83 76 74 58 63 64 79 92 86 95 85 95 84 85 84 43 46 96 97 95 97 94 103 100 94 91 93 97 96 97 102 109 115 111 104 103 117 113 102 99 94 104 100 98 94 104 67 72 73 72 72
331 333 330 330 327 324 323 313 315 327 26 41 26 165 114 9 326 305 318 313 261 100 164 147 106 131 145 107 132 90 354 221 111 129 87 48 99 101 98 102 94 89 76 88 88 93 94 94 97 89 74 86 92 96 96 96 94 101 98 93 89 78 72 80 91 100 104 100 98 104 106 105 112 110 113 116 111 100 120 116 97 90 88 104 100 92 86
327 329 326 324 321 319 313 310 299 297 268 237 158 104 60 15 327 359 326 281 348 107 244 114 150 149 107 202 172 104 294 118 115 125 102 54 68 127 113 112 79 76 59 90 106 112 108 99 88 90 95 79 87 93 91 93 103 104 100 95 99 107 113 109 105 90 73 66 57 73 98 100 84 94 102 94 87 70 72 108 145 133 114 88 69 92 85
324 321 321 316 311 314 304 292 279 239 188 113 83 75 19 351 332 293 298 303 193 112 69 171 141 128 157 174 129 114 301 248 114 102 113 99 264 126 141 128 142 116 80 126 113 99 116 103 115 100 89 105 98 91 104 114 119 121 124 125 127 127 116 92 75 78 95 93 99 90 92 119 131 116 118 122 118 125 139 283 0 297 193 182 230 212 149
319 316 312 310 305 291 268 225 243 208 151 101 90 58 4 310 296 288 288 267 306 110 160 132 178 137 162 141 142 129 262 84 92 98 93 123 88 80 111 107 107 75 215 148 111 133 110 150 236 105 127 105 92 102 104 107 98 85 78 70 70 74 63 54 55 85 86 67 64 70 77 96 115 116 114 131 127 196 238 260 263 266 279 267 224 219 243
314 312 302 286 266 206 211 130 87 358 31 25 345 326 299 288 230 239 224 222 169 299 205 205 195 122 142 96 95 127 245 133 174 126 164 153 96 111 127 138 102 130 125 110 117 114 116 263 111 115 109 106 101 103 110 110 108 101 90 86 76 72 72 68 56 86 111 119 132 163 139 149 135 130 143 50 48 223 244 254 245 244 256 254 230 214 223
314 304 273 213 205 159 123 149 93 31 328 293 282 233 170 228 164 176 175 167 21 286 257 269 90 114 165 148 121 118 261 126 232 126 105 113 131 91 102 106 110 210 122 116 86 27 99 96 95 99 101 101 97 87 87 94 93 93 91 81 69 61 55 44 30 49 119 148 144 144 160 148 183 185 281 44 22 8 333 317 319 289 259 259 275 274 233
275 240 226 233 218 150 78 95 62 15 294 185 244 222 154 223 146 144 125 105 190 180 284 184 126 184 149 100 113 86 331 148 153 148 150 37 234 134 218 144 168 208 114 139 135 252 121 107 121 127 121 133 130 113 109 100 93 87 85 74 64 55 68 75 51 37 33 27 19 8 350 3 1 71 249 346 14 347 329 314 304 308 315 323 278 251 264
198 208 203 191 71 86 96 111 144 211 220 196 190 217 149 245 176 176 219 173 138 112 218 125 98 64 8 136 146 135 41 302 178 163 127 131 319 160 169 132 124 171 146 170 133 230 166 138 135 138 137 153 127 140 129 123 114 106 96 91 81 81 75 65 66 65 72 70 42 34 11 6 345 329 351 342 334 307 321 337 330 313 313 348 50 307 289
213 205 207 128 104 119 122 146 179 218 217 171 120 244 129 184 346 93 187 181 161 129 309 109 167 148 186 136 147 139 135 290 359 64 132 116 28 300 140 124 169 184 154 128 137 217 158 138 162 168 141 142 141 145 134 136 123 118 100 92 96 95 98 87 67 35 22 39 53 59 60 17 192 278 316 317 299 302 305 305 319 329 308 305 293 288 303
8 329 357 49 99 115 144 166 199 163 352 189 161 161 175 144 165 210 224 208 144 157 161 164 162 167 147 54 92 117 122 325 327 137 133 128 290 284 115 134 189 172 136 92 154 185 153 155 198 139 135 150 143 146 153 135 139 131 123 111 110 96 75 68 70 68 33 17 31 347 41 343 359 318 313 330 327 330 319 319 311 303 290 301 300 282 278
273 254 271 172 146 161 198 153 155 225 165 196 180 135 185 185 189 194 163 330 87 186 116 350 57 63 75 187 102 11 57 17 245 189 128 111 164 247 139 137 186 160 117 142 204 154 170 160 200 139 153 145 155 162 158 143 147 126 119 121 110 85 55 48 39 42 43 12 34 341 359 318 341 317 347 291 299 290 296 324 320 309 302 286 290 301 296
215 194 193 150 147 138 208 140 189 341 321 194 162 166 189 186 184 194 184 157 162 147 144 174 152 197 141 254 131 129 137 156 289 80 88 127 176 108 133 166 120 77 141 178 190 171 182 149 206 141 155 146 166 171 152 146 146 136 137 140 118 143 90 337 38 347 73 350 35 8 286 323 345 306 295 321 314 308 309 300 302 304 308 310 302 294 330
156 187 150 147 152 165 165 49 237 194 204 198 223 185 172 197 174 203 165 122 196 136 162 154 179 185 123 120 100 128 255 137 166 198 130 177 135 145 176 118 120 175 186 171 182 153 119 175 151 142 148 156 165 174 148 160 158 160 143 159 171 146 353 329 84 299 339 354 357 314 315 352 304 311 318 314 315 315 306 310 308 308 311 299 300 307 271
198 161 155 124 9 290 215 165 163 216 225 158 208 176 193 166 174 139 99 186 147 140 166 167 176 130 142 170 264 138 178 149 149 107 146 154 131 107 52 86 192 173 185 182 183 177 182 186 162 154 156 162 158 160 155 175 165 145 153 191 137 221 145 285 268 276 275 314 320 313 300 292 306 308 306 318 311 300 322 317 296 293 302 304 311 290 274
173 184 197 147 149 191 233 183 195 202 170 192 174 246 153 90 96 112 130 137 148 155 134 167 140 145 155 154 137 131 164 107 118 136 229 121 106 94 252 188 180 171 182 185 173 187 179 155 156 159 159 154 154 154 164 174 170 186 210 116 160 246 274 251 273 273 310 321 281 290 300 305 305 314 317 298 300 309 305 303 291 283 285 289 293 272 254
165 199 230 174 198 180 201 218 103 116 325 89 120 118 102 116 134 128 163 165 111 143 142 124 115 146 129 139 248 146 128 111 122 131 38 102 123 137 139 160 188 194 180 186 191 216 146 137 155 158 157 154 150 162 170 173 175 193 210 183 212 230 226 243 270 292 317 312 305 304 311 310 297 304 303 309 298 297 306 292 283 286 280 276 271 278 282
251 183 198 198 207 182 210 140 186 157 144 141 155 149 151 151 121 120 102 97 138 140 158 178 140 176 124 171 131 114 140 137 159 139 161 172 144 160 177 179 178 182 192 221 183 176 130 140 144 151 145 150 156 171 162 169 175 198 217 242 235 224 224 251 271 290 281 269 312 323 308 329 322 281 269 271 298 322 306 296 287 279 278 276 277 279 275
188 152 292 197 192 226 154 196 202 135 146 147 163 149 134 123 130 122 167 166 140 130 20 60 327 247 130 178 145 151 162 185 120 148 181 166 168 189 185 166 174 206 177 232 102 118 133 145 147 152 148 156 166 172 160 173 127 261 214 200 223 237 232 237 244 240 275 330 316 333 329 283 275 302 327 328 317 303 294 294 288 280 275 275 282 283 289
290 250 231 308 261 169 170 196 165 147 160 162 159 138 144 133 134 136 162 123 144 148 184 174 140 135 151 140 137 158 140 103 155 175 179 176 177 178 163 175 210 195 129 109 115 134 144 148 152 155 148 146 177 178 168 170 181 202 199 225 204 232 214 200 248 254 255 263 258 225 246 298 340 330 314 299 285 291 292 288 283 281 272 269 266 274 275
192 210 205 177 259 171 206 157 138 169 152 151 144 133 140 131 136 122 166 168 152 202 171 125 154 141 140 169 178 116 119 189 177 174 161 123 190 157 201 180 125 115 123 135 140 130 140 162 153 143 171 148 154 160 197 174 185 184 205 189 199 196 218 221 237 254 273 271 271 292 331 315 330 317 312 300 300 290 291 294 290 282 277 274 276 270 267